Location: Serin Observatory
(40.5200°N, 74.4500°W)
Time: 10:54:43
(UTC+00:00)

SL-8 R/B - Visible Passes

Search period start: 30 January 2015 00:00
Search period end: 09 February 2015 00:00
Orbit: 659 x 669 km, 48.4° (Epoch: 29 January)

Date Brightness Start Highest point End Pass type
(mag) Time Alt. Az. Time Alt. Az. Time Alt. Az.
01 Feb 6.5 11:10:54 10° S 11:14:03 18° SE 11:17:19 10° E visible
03 Feb 6.2 10:31:12 10° S 10:34:33 20° SE 10:38:02 10° E visible
04 Feb 4.7 11:01:15 10° SSW 11:05:48 46° SE 11:10:22 10° ENE visible
05 Feb 5.9 09:51:37 10° S 09:55:03 21° SE 09:58:42 10° E visible
05 Feb 3.7 11:32:28 10° WSW 11:37:15 84° NNW 11:42:03 10° ENE visible
06 Feb 4.4 10:22:48 17° SSW 10:26:19 50° SE 10:30:57 10° ENE visible
07 Feb 5.6 09:15:40 23° SE 09:15:40 23° SE 09:19:22 10° E visible
07 Feb 3.6 10:53:43 14° WSW 10:57:47 79° NNW 11:02:35 10° ENE visible
08 Feb 4.1 09:46:22 51° SSE 09:46:50 54° SE 09:51:30 10° ENE visible
08 Feb 4.2 11:24:55 10° W 11:29:31 45° NNW 11:34:08 10° NE visible
